Location: B?ezina
(49.8085°N, 13.6013°E)
Time: 20:41:32
(UTC+00:00)

NOSS 3-1 (C) - Pass Details

Date: 19 May 2025
Orbit: 625 x 1577 km, 63.4° (Epoch: 18 June)

Event Time Altitude Azimuth Distance (km) Brightness Sun altitude
Rises 20:17:31 0° 205° (SSW) 2,954 5.8 -11.3°
Reaches altitude 10° 20:19:41 10° 201° (SSW) 2,100 5.0 -11.5°
Maximum altitude 20:24:16 55° 124° (SE) 896 3.0 -12.0°
Drops below altitude 10° 20:29:50 10° 48° (NE) 2,535 5.8 -12.5°
Sets 20:32:39 0° 44° (NE) 3,629 6.6 -12.8°
